Data supplied by UK-AIR on 15/3/2023
All Data GMT hour ending 
Status: R =Ratified P=Provisional,P*=As supplied
,,Hafod-yr-ynys Roadside,,,,,,,,,,,,,,,,,,,,,,,
Date,time,"Nitric oxide",status,unit,"Nitrogen dioxide",status,unit,"Nitrogen oxides as nitrogen dioxide",status,unit
 
01-01-2022,01:00,6.17664,R,ugm-3,14.40522,R,ugm-3,23.87594,R,ugm-3
01-01-2022,02:00,3.18483,R,ugm-3,8.26019,R,ugm-3,13.14353,R,ugm-3
01-01-2022,03:00,1.76613,R,ugm-3,3.86373,R,ugm-3,6.57176,R,ugm-3
01-01-2022,04:00,4.25609,R,ugm-3,4.98569,R,ugm-3,11.51161,R,ugm-3
01-01-2022,05:00,1.41870,R,ugm-3,3.29381,R,ugm-3,5.46912,R,ugm-3
01-01-2022,06:00,2.17148,R,ugm-3,3.06579,R,ugm-3,6.39534,R,ugm-3
01-01-2022,07:00,6.83291,R,ugm-3,10.12042,R,ugm-3,20.59741,R,ugm-3
01-01-2022,08:00,5.41421,R,ugm-3,9.03190,R,ugm-3,17.33358,R,ugm-3
01-01-2022,09:00,6.31176,R,ugm-3,10.08151,R,ugm-3,19.75940,R,ugm-3
01-01-2022,10:00,12.07341,R,ugm-3,16.64002,R,ugm-3,35.15232,R,ugm-3
01-01-2022,11:00,17.71925,R,ugm-3,20.95030,R,ugm-3,48.11942,R,ugm-3
01-01-2022,12:00,17.05333,R,ugm-3,23.29453,R,ugm-3,49.44260,R,ugm-3
01-01-2022,13:00,17.95087,R,ugm-3,20.19819,R,ugm-3,47.72247,R,ugm-3
01-01-2022,14:00,17.54553,R,ugm-3,20.64328,R,ugm-3,47.54605,R,ugm-3
01-01-2022,15:00,17.05333,R,ugm-3,21.04514,R,ugm-3,47.19320,R,ugm-3
01-01-2022,16:00,21.01989,R,ugm-3,30.31197,R,ugm-3,62.54202,R,ugm-3
01-01-2022,17:00,32.57214,R,ugm-3,32.44638,R,ugm-3,82.38963,R,ugm-3
01-01-2022,18:00,34.54095,R,ugm-3,38.07232,R,ugm-3,91.03436,R,ugm-3
01-01-2022,19:00,18.29831,R,ugm-3,32.80899,R,ugm-3,60.86600,R,ugm-3
01-01-2022,20:00,23.74147,R,ugm-3,27.19748,R,ugm-3,63.60056,R,ugm-3
01-01-2022,21:00,13.02886,R,ugm-3,21.70268,R,ugm-3,41.67998,R,ugm-3
01-01-2022,22:00,9.46764,R,ugm-3,16.00437,R,ugm-3,30.52121,R,ugm-3
01-01-2022,23:00,6.94872,R,ugm-3,11.79529,R,ugm-3,22.44985,R,ugm-3
01-01-2022,24:00,4.69039,R,ugm-3,9.39195,R,ugm-3,16.58378,R,ugm-3
02-01-2022,01:00,1.65716,R,ugm-3,6.91026,R,ugm-3,9.45120,R,ugm-3
02-01-2022,02:00,1.87876,R,ugm-3,4.47184,R,ugm-3,7.35256,R,ugm-3
02-01-2022,03:00,1.73424,R,ugm-3,5.57398,R,ugm-3,8.23311,R,ugm-3
02-01-2022,04:00,0.54918,R,ugm-3,1.22723,R,ugm-3,2.06928,R,ugm-3
02-01-2022,05:00,1.76314,R,ugm-3,2.75594,R,ugm-3,5.45939,R,ugm-3
02-01-2022,06:00,2.65916,R,ugm-3,5.87285,R,ugm-3,9.95017,R,ugm-3
02-01-2022,07:00,5.95421,R,ugm-3,7.86488,R,ugm-3,16.99454,R,ugm-3
02-01-2022,08:00,4.74025,R,ugm-3,8.22934,R,ugm-3,15.49761,R,ugm-3
02-01-2022,09:00,6.04092,R,ugm-3,8.78858,R,ugm-3,18.05120,R,ugm-3
02-01-2022,10:00,8.78680,R,ugm-3,9.20117,R,ugm-3,22.67407,R,ugm-3
02-01-2022,11:00,12.97787,R,ugm-3,13.07734,R,ugm-3,32.97646,R,ugm-3
02-01-2022,12:00,12.80444,R,ugm-3,12.41868,R,ugm-3,32.05188,R,ugm-3
02-01-2022,13:00,13.49814,R,ugm-3,24.65128,R,ugm-3,45.34813,R,ugm-3
02-01-2022,14:00,16.99551,R,ugm-3,23.42728,R,ugm-3,49.48670,R,ugm-3
02-01-2022,15:00,16.44634,R,ugm-3,28.14373,R,ugm-3,53.36110,R,ugm-3
02-01-2022,16:00,18.55632,R,ugm-3,23.76376,R,ugm-3,52.21639,R,ugm-3
02-01-2022,17:00,14.59649,R,ugm-3,22.74703,R,ugm-3,45.12800,R,ugm-3
02-01-2022,18:00,13.96060,R,ugm-3,19.93569,R,ugm-3,41.34164,R,ugm-3
02-01-2022,19:00,15.34799,R,ugm-3,18.90908,R,ugm-3,42.44233,R,ugm-3
02-01-2022,20:00,18.00715,R,ugm-3,14.87578,R,ugm-3,42.48636,R,ugm-3
02-01-2022,21:00,6.93694,R,ugm-3,10.84883,R,ugm-3,21.48533,R,ugm-3
02-01-2022,22:00,3.09272,R,ugm-3,6.26472,R,ugm-3,11.00683,R,ugm-3
02-01-2022,23:00,2.86149,R,ugm-3,2.43668,R,ugm-3,6.82423,R,ugm-3
02-01-2022,24:00,1.70533,R,ugm-3,2.27223,R,ugm-3,4.88703,R,ugm-3
03-01-2022,01:00,2.65465,R,ugm-3,7.64929,R,ugm-3,11.71969,R,ugm-3
03-01-2022,02:00,0.95221,R,ugm-3,1.17690,R,ugm-3,2.63693,R,ugm-3
03-01-2022,03:00,0.92336,R,ugm-3,1.86415,R,ugm-3,3.51591,R,ugm-3
03-01-2022,04:00,1.42351,R,ugm-3,2.32940,R,ugm-3,4.51208,R,ugm-3
03-01-2022,05:00,2.07755,R,ugm-3,1.25330,R,ugm-3,4.43883,R,ugm-3
03-01-2022,06:00,4.90533,R,ugm-3,7.72885,R,ugm-3,15.25024,R,ugm-3
03-01-2022,07:00,7.70425,R,ugm-3,11.69961,R,ugm-3,23.51262,R,ugm-3
03-01-2022,08:00,8.82958,R,ugm-3,10.23781,R,ugm-3,23.77632,R,ugm-3
03-01-2022,09:00,8.62760,R,ugm-3,12.34941,R,ugm-3,25.57822,R,ugm-3
03-01-2022,10:00,14.80254,R,ugm-3,16.02201,R,ugm-3,38.71891,R,ugm-3
03-01-2022,11:00,13.01354,R,ugm-3,22.89629,R,ugm-3,42.85011,R,ugm-3
03-01-2022,12:00,22.44907,R,ugm-3,20.60250,R,ugm-3,55.02393,R,ugm-3
03-01-2022,13:00,24.44006,R,ugm-3,28.75665,R,ugm-3,66.23088,R,ugm-3
03-01-2022,14:00,23.34358,R,ugm-3,27.97676,R,ugm-3,63.76975,R,ugm-3
03-01-2022,15:00,21.81427,R,ugm-3,29.92613,R,ugm-3,63.37421,R,ugm-3
03-01-2022,16:00,33.03880,R,ugm-3,45.28149,R,ugm-3,95.94029,R,ugm-3
03-01-2022,17:00,35.08750,R,ugm-3,32.11987,R,ugm-3,85.91995,R,ugm-3
03-01-2022,18:00,38.66550,R,ugm-3,56.25519,R,ugm-3,115.54146,R,ugm-3
03-01-2022,19:00,94.38422,R,ugm-3,66.45366,R,ugm-3,211.17411,R,ugm-3
03-01-2022,20:00,50.84225,R,ugm-3,56.65823,R,ugm-3,134.61525,R,ugm-3
03-01-2022,21:00,44.40762,R,ugm-3,48.06602,R,ugm-3,116.15675,R,ugm-3
03-01-2022,22:00,24.26693,R,ugm-3,36.53736,R,ugm-3,73.74613,R,ugm-3
03-01-2022,23:00,10.61859,R,ugm-3,17.82269,R,ugm-3,34.10429,R,ugm-3
03-01-2022,24:00,15.61048,R,ugm-3,23.96849,R,ugm-3,47.90422,R,ugm-3
04-01-2022,01:00,29.15144,R,ugm-3,43.68586,R,ugm-3,88.38411,R,ugm-3
04-01-2022,02:00,9.50590,R,ugm-3,19.90657,R,ugm-3,34.48209,R,ugm-3
04-01-2022,03:00,11.72395,R,ugm-3,15.36499,R,ugm-3,33.34146,R,ugm-3
04-01-2022,04:00,7.11503,R,ugm-3,18.30809,R,ugm-3,29.21765,R,ugm-3
04-01-2022,05:00,34.94140,R,ugm-3,36.66522,R,ugm-3,90.24129,R,ugm-3
04-01-2022,06:00,106.43732,R,ugm-3,74.70724,R,ugm-3,237.90885,R,ugm-3
04-01-2022,07:00,60.37689,R,ugm-3,50.39683,R,ugm-3,142.97344,R,ugm-3
04-01-2022,08:00,64.84179,R,ugm-3,58.02796,R,ugm-3,157.45065,R,ugm-3
04-01-2022,09:00,53.03142,R,ugm-3,51.39406,R,ugm-3,132.70778,R,ugm-3
04-01-2022,10:00,40.29927,R,ugm-3,42.31296,R,ugm-3,104.10432,R,ugm-3
04-01-2022,11:00,39.46391,R,ugm-3,30.12565,R,ugm-3,90.63612,R,ugm-3
04-01-2022,12:00,27.10623,R,ugm-3,32.22761,R,ugm-3,73.78991,R,ugm-3
04-01-2022,13:00,18.89659,R,ugm-3,20.37977,R,ugm-3,49.35413,R,ugm-3
04-01-2022,14:00,23.93759,R,ugm-3,28.53140,R,ugm-3,65.23520,R,ugm-3
04-01-2022,15:00,28.63294,R,ugm-3,32.29956,R,ugm-3,76.20278,R,ugm-3
04-01-2022,16:00,25.83878,R,ugm-3,25.35307,R,ugm-3,64.97197,R,ugm-3
04-01-2022,17:00,107.93522,R,ugm-3,74.38466,R,ugm-3,239.88302,R,ugm-3
04-01-2022,18:00,102.00123,R,ugm-3,75.49891,R,ugm-3,231.89862,R,ugm-3
04-01-2022,19:00,99.03424,R,ugm-3,75.61733,R,ugm-3,227.46771,R,ugm-3
04-01-2022,20:00,75.38470,R,ugm-3,65.28915,R,ugm-3,180.87741,R,ugm-3
04-01-2022,21:00,52.54172,R,ugm-3,55.69842,R,ugm-3,136.26128,R,ugm-3
04-01-2022,22:00,21.11463,R,ugm-3,28.38511,R,ugm-3,60.76042,R,ugm-3
04-01-2022,23:00,24.60013,R,ugm-3,37.21087,R,ugm-3,74.93054,R,ugm-3
04-01-2022,24:00,14.51811,R,ugm-3,15.99415,R,ugm-3,38.25494,R,ugm-3
05-01-2022,01:00,7.32337,R,ugm-3,7.22196,R,ugm-3,18.45097,R,ugm-3
05-01-2022,02:00,2.35805,R,ugm-3,3.56624,R,ugm-3,7.18186,R,ugm-3
05-01-2022,03:00,3.19199,R,ugm-3,3.86405,R,ugm-3,8.75837,R,ugm-3
05-01-2022,04:00,6.67155,R,ugm-3,4.35312,R,ugm-3,14.58269,R,ugm-3
05-01-2022,05:00,36.89483,R,ugm-3,28.73525,R,ugm-3,85.30653,R,ugm-3
05-01-2022,06:00,157.38536,R,ugm-3,74.50601,R,ugm-3,315.82685,R,ugm-3
05-01-2022,07:00,174.75440,R,ugm-3,92.27879,R,ugm-3,360.23179,R,ugm-3
05-01-2022,08:00,287.91197,R,ugm-3,110.66884,R,ugm-3,552.12770,R,ugm-3
05-01-2022,09:00,274.56886,R,ugm-3,127.58084,R,ugm-3,548.58056,R,ugm-3
05-01-2022,10:00,201.26806,R,ugm-3,98.52614,R,ugm-3,407.13287,R,ugm-3
05-01-2022,11:00,161.46881,R,ugm-3,84.22883,R,ugm-3,331.81088,R,ugm-3
05-01-2022,12:00,57.74343,R,ugm-3,52.82141,R,ugm-3,141.36011,R,ugm-3
05-01-2022,13:00,49.80659,R,ugm-3,31.88443,R,ugm-3,108.25346,R,ugm-3
05-01-2022,14:00,30.53960,R,ugm-3,27.79458,R,ugm-3,74.62132,R,ugm-3
05-01-2022,15:00,43.02001,R,ugm-3,42.37796,R,ugm-3,108.34105,R,ugm-3
05-01-2022,16:00,48.68507,R,ugm-3,48.27433,R,ugm-3,122.92373,R,ugm-3
05-01-2022,17:00,76.95290,R,ugm-3,60.63417,R,ugm-3,178.62697,R,ugm-3
05-01-2022,18:00,183.58270,R,ugm-3,103.48464,R,ugm-3,384.97419,R,ugm-3
05-01-2022,19:00,172.22381,R,ugm-3,82.49591,R,ugm-3,346.56873,R,ugm-3
05-01-2022,20:00,105.59456,R,ugm-3,76.36208,R,ugm-3,238.27148,R,ugm-3
05-01-2022,21:00,68.69973,R,ugm-3,58.31205,R,ugm-3,163.65016,R,ugm-3
05-01-2022,22:00,70.65518,R,ugm-3,50.45283,R,ugm-3,158.78926,R,ugm-3
05-01-2022,23:00,49.97913,R,ugm-3,41.99854,R,ugm-3,118.63213,R,ugm-3
05-01-2022,24:00,35.19819,R,ugm-3,36.02246,R,ugm-3,89.99226,R,ugm-3
06-01-2022,01:00,26.67894,R,ugm-3,28.10171,R,ugm-3,69.00884,R,ugm-3
06-01-2022,02:00,9.32997,R,ugm-3,25.16741,R,ugm-3,39.47317,R,ugm-3
06-01-2022,03:00,6.94724,R,ugm-3,23.57528,R,ugm-3,34.22757,R,ugm-3
06-01-2022,04:00,17.88484,R,ugm-3,22.97848,R,ugm-3,50.40151,R,ugm-3
06-01-2022,05:00,27.64543,R,ugm-3,26.98405,R,ugm-3,69.37312,R,ugm-3
06-01-2022,06:00,124.59102,R,ugm-3,51.44116,R,ugm-3,242.47806,R,ugm-3
06-01-2022,07:00,179.25030,R,ugm-3,100.08294,R,ugm-3,374.92956,R,ugm-3
06-01-2022,08:00,156.74354,R,ugm-3,96.64962,R,ugm-3,336.98636,R,ugm-3
06-01-2022,09:00,103.34739,R,ugm-3,84.32027,R,ugm-3,242.78405,R,ugm-3
06-01-2022,10:00,71.08004,R,ugm-3,60.40144,R,ugm-3,169.38931,R,ugm-3
06-01-2022,11:00,41.88440,R,ugm-3,45.67356,R,ugm-3,109.89541,R,ugm-3
06-01-2022,12:00,28.90856,R,ugm-3,35.88819,R,ugm-3,80.21403,R,ugm-3
06-01-2022,13:00,41.19542,R,ugm-3,55.77865,R,ugm-3,118.94408,R,ugm-3
06-01-2022,14:00,46.93694,R,ugm-3,49.81648,R,ugm-3,121.78545,R,ugm-3
06-01-2022,15:00,35.48260,R,ugm-3,47.75225,R,ugm-3,102.15814,R,ugm-3
06-01-2022,16:00,32.12381,R,ugm-3,43.46023,R,ugm-3,92.71606,R,ugm-3
06-01-2022,17:00,47.59721,R,ugm-3,41.80993,R,ugm-3,114.79131,R,ugm-3
06-01-2022,18:00,44.55421,R,ugm-3,49.79803,R,ugm-3,118.11352,R,ugm-3
06-01-2022,19:00,66.48682,R,ugm-3,70.89763,R,ugm-3,172.84266,R,ugm-3
06-01-2022,20:00,37.52084,R,ugm-3,47.29350,R,ugm-3,104.82466,R,ugm-3
06-01-2022,21:00,14.64088,R,ugm-3,22.53202,R,ugm-3,44.98106,R,ugm-3
06-01-2022,22:00,18.02838,R,ugm-3,29.05311,R,ugm-3,56.69624,R,ugm-3
06-01-2022,23:00,14.41122,R,ugm-3,25.94410,R,ugm-3,48.04099,R,ugm-3
06-01-2022,24:00,4.70805,R,ugm-3,11.97126,R,ugm-3,19.19017,R,ugm-3
07-01-2022,01:00,10.35528,R,ugm-3,12.45571,R,ugm-3,28.33358,R,ugm-3
07-01-2022,02:00,0.94573,R,ugm-3,,,,,,
07-01-2022,03:00,8.28231,R,ugm-3,13.78700,R,ugm-3,26.48638,R,ugm-3
07-01-2022,04:00,11.49207,R,ugm-3,19.55599,R,ugm-3,37.17692,R,ugm-3
07-01-2022,05:00,31.58170,R,ugm-3,40.50330,R,ugm-3,88.92789,R,ugm-3
07-01-2022,06:00,82.27863,R,ugm-3,61.42756,R,ugm-3,187.58636,R,ugm-3
07-01-2022,07:00,64.39571,R,ugm-3,57.16873,R,ugm-3,155.90744,R,ugm-3
07-01-2022,08:00,130.13837,R,ugm-3,88.62205,R,ugm-3,288.16477,R,ugm-3
07-01-2022,09:00,131.08410,R,ugm-3,84.59749,R,ugm-3,285.59031,R,ugm-3
07-01-2022,10:00,72.79266,R,ugm-3,43.90087,R,ugm-3,155.51472,R,ugm-3
07-01-2022,11:00,28.96422,R,ugm-3,41.63681,R,ugm-3,86.04799,R,ugm-3
07-01-2022,12:00,74.36888,R,ugm-3,53.04728,R,ugm-3,167.07797,R,ugm-3
07-01-2022,13:00,49.12071,R,ugm-3,33.46439,R,ugm-3,108.78177,R,ugm-3
07-01-2022,14:00,60.61278,R,ugm-3,65.54359,R,ugm-3,158.48190,R,ugm-3
07-01-2022,15:00,38.91828,R,ugm-3,46.92616,R,ugm-3,106.60002,R,ugm-3
07-01-2022,16:00,47.65913,R,ugm-3,52.59215,R,ugm-3,125.66846,R,ugm-3
07-01-2022,17:00,100.04692,R,ugm-3,75.98545,R,ugm-3,229.38858,R,ugm-3
07-01-2022,18:00,174.96030,R,ugm-3,108.30032,R,ugm-3,376.56904,R,ugm-3
07-01-2022,19:00,128.04630,R,ugm-3,91.26260,R,ugm-3,287.59751,R,ugm-3
07-01-2022,20:00,128.87739,R,ugm-3,82.83215,R,ugm-3,280.44139,R,ugm-3
07-01-2022,21:00,99.96094,R,ugm-3,73.84826,R,ugm-3,227.11957,R,ugm-3
07-01-2022,22:00,95.69082,R,ugm-3,64.07625,R,ugm-3,210.80012,R,ugm-3
07-01-2022,23:00,95.31826,R,ugm-3,57.53501,R,ugm-3,203.68763,R,ugm-3
07-01-2022,24:00,29.37499,R,ugm-3,34.28720,R,ugm-3,79.32822,R,ugm-3
08-01-2022,01:00,38.37480,R,ugm-3,40.23574,R,ugm-3,99.07629,R,ugm-3
08-01-2022,02:00,20.08383,R,ugm-3,40.24571,R,ugm-3,71.04048,R,ugm-3
08-01-2022,03:00,19.74052,R,ugm-3,36.19869,R,ugm-3,66.46706,R,ugm-3
08-01-2022,04:00,11.78709,R,ugm-3,32.14724,R,ugm-3,50.22053,R,ugm-3
08-01-2022,05:00,4.72056,R,ugm-3,10.62003,R,ugm-3,17.85812,R,ugm-3
08-01-2022,06:00,6.35130,R,ugm-3,6.29024,R,ugm-3,16.02875,R,ugm-3
08-01-2022,07:00,8.26813,R,ugm-3,13.02065,R,ugm-3,25.69827,R,ugm-3
08-01-2022,08:00,6.63739,R,ugm-3,7.81160,R,ugm-3,17.98879,R,ugm-3
08-01-2022,09:00,12.13040,R,ugm-3,14.32894,R,ugm-3,32.92864,R,ugm-3
08-01-2022,10:00,14.70525,R,ugm-3,18.96150,R,ugm-3,41.50925,R,ugm-3
08-01-2022,11:00,15.99268,R,ugm-3,17.81505,R,ugm-3,42.33682,R,ugm-3
08-01-2022,12:00,23.05921,R,ugm-3,27.27713,R,ugm-3,62.63410,R,ugm-3
08-01-2022,13:00,43.65801,R,ugm-3,50.05113,R,ugm-3,116.99249,R,ugm-3
08-01-2022,14:00,57.27611,R,ugm-3,42.71638,R,ugm-3,130.53852,R,ugm-3
08-01-2022,15:00,40.11044,R,ugm-3,44.42734,R,ugm-3,105.92916,R,ugm-3
08-01-2022,16:00,70.49367,R,ugm-3,63.43630,R,ugm-3,171.52509,R,ugm-3
08-01-2022,17:00,64.14238,R,ugm-3,54.83758,R,ugm-3,153.18785,R,ugm-3
08-01-2022,18:00,33.95941,R,ugm-3,29.68499,R,ugm-3,81.75536,R,ugm-3
08-01-2022,19:00,21.91484,R,ugm-3,26.94111,R,ugm-3,60.54339,R,ugm-3
08-01-2022,20:00,27.12175,R,ugm-3,36.85896,R,ugm-3,78.44507,R,ugm-3
08-01-2022,21:00,12.30206,R,ugm-3,18.07293,R,ugm-3,36.93583,R,ugm-3
08-01-2022,22:00,6.72322,R,ugm-3,11.46941,R,ugm-3,21.77820,R,ugm-3
08-01-2022,23:00,7.23819,R,ugm-3,7.28240,R,ugm-3,18.38080,R,ugm-3
08-01-2022,24:00,6.09381,R,ugm-3,10.56156,R,ugm-3,19.90527,R,ugm-3
09-01-2022,01:00,3.54149,R,ugm-3,6.04797,R,ugm-3,11.47817,R,ugm-3
09-01-2022,02:00,5.36935,R,ugm-3,10.83943,R,ugm-3,19.07231,R,ugm-3
09-01-2022,03:00,3.94133,R,ugm-3,6.17401,R,ugm-3,12.21729,R,ugm-3
09-01-2022,04:00,4.22693,R,ugm-3,5.51870,R,ugm-3,11.99990,R,ugm-3
09-01-2022,05:00,4.76958,R,ugm-3,10.90399,R,ugm-3,18.21725,R,ugm-3
09-01-2022,06:00,9.39636,R,ugm-3,15.15743,R,ugm-3,29.56498,R,ugm-3
09-01-2022,07:00,12.50944,R,ugm-3,22.64488,R,ugm-3,41.82575,R,ugm-3
09-01-2022,08:00,19.50673,R,ugm-3,23.82880,R,ugm-3,53.73870,R,ugm-3
09-01-2022,09:00,24.16207,R,ugm-3,30.21234,R,ugm-3,67.26033,R,ugm-3
09-01-2022,10:00,28.21764,R,ugm-3,37.08074,R,ugm-3,80.34718,R,ugm-3
09-01-2022,11:00,46.03931,R,ugm-3,43.84125,R,ugm-3,114.43386,R,ugm-3
09-01-2022,12:00,40.61284,R,ugm-3,30.59667,R,ugm-3,92.86882,R,ugm-3
09-01-2022,13:00,48.43838,R,ugm-3,55.03217,R,ugm-3,129.30331,R,ugm-3
09-01-2022,14:00,44.12576,R,ugm-3,37.55799,R,ugm-3,105.21655,R,ugm-3
09-01-2022,15:00,79.02653,R,ugm-3,70.56528,R,ugm-3,191.73759,R,ugm-3
09-01-2022,16:00,80.62591,R,ugm-3,79.72153,R,ugm-3,203.34619,R,ugm-3
09-01-2022,17:00,112.41359,R,ugm-3,86.11108,R,ugm-3,258.47619,R,ugm-3
09-01-2022,18:00,141.23100,R,ugm-3,86.83769,R,ugm-3,303.38887,R,ugm-3
09-01-2022,19:00,158.79562,R,ugm-3,84.94892,R,ugm-3,328.43215,R,ugm-3
09-01-2022,20:00,145.45793,R,ugm-3,78.31302,R,ugm-3,301.34541,R,ugm-3
09-01-2022,21:00,123.23797,R,ugm-3,73.94868,R,ugm-3,262.91093,R,ugm-3
09-01-2022,22:00,76.14193,R,ugm-3,58.59709,R,ugm-3,175.34642,R,ugm-3
09-01-2022,23:00,52.89379,R,ugm-3,48.59193,R,ugm-3,129.69461,R,ugm-3
09-01-2022,24:00,21.64876,R,ugm-3,35.10951,R,ugm-3,68.30380,R,ugm-3
10-01-2022,01:00,19.00752,R,ugm-3,31.73047,R,ugm-3,60.87493,R,ugm-3
10-01-2022,02:00,13.57137,R,ugm-3,24.63006,R,ugm-3,45.43920,R,ugm-3
10-01-2022,03:00,16.99272,R,ugm-3,17.12728,R,ugm-3,43.18243,R,ugm-3
10-01-2022,04:00,46.47339,R,ugm-3,27.77929,R,ugm-3,99.03749,R,ugm-3
10-01-2022,05:00,122.88363,R,ugm-3,48.10794,R,ugm-3,236.52687,R,ugm-3
10-01-2022,06:00,185.89356,R,ugm-3,56.04327,R,ugm-3,341.07609,R,ugm-3
10-01-2022,07:00,231.39757,R,ugm-3,46.64004,R,ugm-3,401.44469,R,ugm-3
10-01-2022,08:00,225.46722,R,ugm-3,69.01333,R,ugm-3,414.72492,R,ugm-3
10-01-2022,09:00,208.90217,R,ugm-3,66.89749,R,ugm-3,387.20968,R,ugm-3
10-01-2022,10:00,175.54397,R,ugm-3,70.82745,R,ugm-3,339.99111,R,ugm-3
10-01-2022,11:00,127.27437,R,ugm-3,79.69726,R,ugm-3,274.84857,R,ugm-3
10-01-2022,12:00,83.62359,R,ugm-3,70.85212,R,ugm-3,199.07317,R,ugm-3
10-01-2022,13:00,91.86335,R,ugm-3,73.10400,R,ugm-3,213.95917,R,ugm-3
10-01-2022,14:00,93.88765,R,ugm-3,68.13394,R,ugm-3,212.09300,R,ugm-3
10-01-2022,15:00,107.80116,R,ugm-3,66.28654,R,ugm-3,231.57934,R,ugm-3
10-01-2022,16:00,157.06866,R,ugm-3,101.28243,R,ugm-3,342.11768,R,ugm-3
10-01-2022,17:00,147.71695,R,ugm-3,104.98865,R,ugm-3,331.48482,R,ugm-3
10-01-2022,18:00,128.84249,R,ugm-3,90.26927,R,ugm-3,287.82500,R,ugm-3
10-01-2022,19:00,111.67869,R,ugm-3,84.90514,R,ugm-3,256.14341,R,ugm-3
10-01-2022,20:00,86.98792,R,ugm-3,79.58137,R,ugm-3,212.96099,R,ugm-3
10-01-2022,21:00,68.76921,R,ugm-3,63.11872,R,ugm-3,168.56337,R,ugm-3
10-01-2022,22:00,57.90642,R,ugm-3,55.51450,R,ugm-3,144.30309,R,ugm-3
10-01-2022,23:00,38.74683,R,ugm-3,51.04056,R,ugm-3,110.45154,R,ugm-3
10-01-2022,24:00,18.36127,R,ugm-3,23.53517,R,ugm-3,51.68872,R,ugm-3
11-01-2022,01:00,12.06797,R,ugm-3,20.71593,R,ugm-3,39.21989,R,ugm-3
11-01-2022,02:00,1.42311,R,ugm-3,4.01282,R,ugm-3,6.19490,R,ugm-3
11-01-2022,03:00,3.04546,R,ugm-3,6.59381,R,ugm-3,11.26345,R,ugm-3
11-01-2022,04:00,12.46644,R,ugm-3,11.59960,R,ugm-3,30.71455,R,ugm-3
11-01-2022,05:00,22.42822,R,ugm-3,30.24539,R,ugm-3,64.63484,R,ugm-3
11-01-2022,06:00,125.88832,R,ugm-3,77.42657,R,ugm-3,270.45263,R,ugm-3
11-01-2022,07:00,261.96610,R,ugm-3,101.62694,R,ugm-3,503.30269,R,ugm-3
11-01-2022,08:00,170.60243,R,ugm-3,104.30192,R,ugm-3,365.88867,R,ugm-3
11-01-2022,09:00,124.35136,R,ugm-3,71.03238,R,ugm-3,261.70180,R,ugm-3
11-01-2022,10:00,90.65211,R,ugm-3,71.71509,R,ugm-3,210.71306,R,ugm-3
11-01-2022,11:00,82.82501,R,ugm-3,54.25825,R,ugm-3,181.25482,R,ugm-3
11-01-2022,12:00,57.74981,R,ugm-3,59.13262,R,ugm-3,147.68109,R,ugm-3
11-01-2022,13:00,38.93629,R,ugm-3,39.76340,R,ugm-3,99.46488,R,ugm-3
11-01-2022,14:00,59.54293,R,ugm-3,41.61077,R,ugm-3,132.90865,R,ugm-3
11-01-2022,15:00,58.00597,R,ugm-3,49.55581,R,ugm-3,138.49705,R,ugm-3
11-01-2022,16:00,88.46052,R,ugm-3,58.87345,R,ugm-3,194.51103,R,ugm-3
11-01-2022,17:00,80.29187,R,ugm-3,43.84642,R,ugm-3,166.95891,R,ugm-3
11-01-2022,18:00,99.50386,R,ugm-3,74.30132,R,ugm-3,226.87177,R,ugm-3
11-01-2022,19:00,91.30674,R,ugm-3,56.63203,R,ugm-3,196.63375,R,ugm-3
11-01-2022,20:00,99.33308,R,ugm-3,56.80158,R,ugm-3,209.11018,R,ugm-3
11-01-2022,21:00,102.46392,R,ugm-3,48.49203,R,ugm-3,205.60119,R,ugm-3
11-01-2022,22:00,94.18142,R,ugm-3,62.70791,R,ugm-3,207.11742,R,ugm-3
11-01-2022,23:00,44.28719,R,ugm-3,48.06409,R,ugm-3,115.97016,R,ugm-3
11-01-2022,24:00,49.32500,R,ugm-3,30.28910,R,ugm-3,105.91970,R,ugm-3
12-01-2022,01:00,16.47961,R,ugm-3,20.22268,R,ugm-3,45.49106,R,ugm-3
12-01-2022,02:00,6.19406,R,ugm-3,13.93999,R,ugm-3,23.43741,R,ugm-3
12-01-2022,03:00,13.09845,R,ugm-3,19.00717,R,ugm-3,39.09118,R,ugm-3
12-01-2022,04:00,22.50319,R,ugm-3,19.72163,R,ugm-3,54.22604,R,ugm-3
12-01-2022,05:00,62.62252,R,ugm-3,31.32918,R,ugm-3,127.34903,R,ugm-3
12-01-2022,06:00,138.82650,R,ugm-3,59.82259,R,ugm-3,272.68692,R,ugm-3
12-01-2022,07:00,226.65146,R,ugm-3,90.30247,R,ugm-3,437.82986,R,ugm-3
12-01-2022,08:00,308.65172,R,ugm-3,111.33538,R,ugm-3,584.59475,R,ugm-3
12-01-2022,09:00,279.98288,R,ugm-3,98.64603,R,ugm-3,527.94714,R,ugm-3
12-01-2022,10:00,155.19246,R,ugm-3,74.68450,R,ugm-3,312.64295,R,ugm-3
12-01-2022,11:00,182.72478,R,ugm-3,77.35454,R,ugm-3,357.52862,R,ugm-3
12-01-2022,12:00,179.76981,R,ugm-3,66.83705,R,ugm-3,342.48025,R,ugm-3
12-01-2022,13:00,,,,,,,,,
12-01-2022,14:00,,,,,,,,,
12-01-2022,15:00,,,,,,,,,
12-01-2022,16:00,,,,,,,,,
12-01-2022,17:00,197.72690,R,ugm-3,68.62161,R,ugm-3,371.79863,R,ugm-3
12-01-2022,18:00,201.81839,R,ugm-3,77.95860,R,ugm-3,387.40916,R,ugm-3
12-01-2022,19:00,187.66866,R,ugm-3,82.01164,R,ugm-3,369.76624,R,ugm-3
12-01-2022,20:00,145.56041,R,ugm-3,57.15132,R,ugm-3,280.34084,R,ugm-3
12-01-2022,21:00,150.30541,R,ugm-3,66.48087,R,ugm-3,296.94594,R,ugm-3
12-01-2022,22:00,123.90962,R,ugm-3,53.93860,R,ugm-3,243.93069,R,ugm-3
12-01-2022,23:00,76.91432,R,ugm-3,43.57693,R,ugm-3,161.51057,R,ugm-3
12-01-2022,24:00,63.16237,R,ugm-3,31.75545,R,ugm-3,128.60306,R,ugm-3
13-01-2022,01:00,23.63192,R,ugm-3,25.12032,R,ugm-3,61.35542,R,ugm-3
13-01-2022,02:00,8.76240,R,ugm-3,15.43850,R,ugm-3,28.87399,R,ugm-3
13-01-2022,03:00,15.50489,R,ugm-3,16.44196,R,ugm-3,40.21579,R,ugm-3
13-01-2022,04:00,30.32699,R,ugm-3,24.19075,R,ugm-3,70.69149,R,ugm-3
13-01-2022,05:00,74.36656,R,ugm-3,32.16095,R,ugm-3,146.18809,R,ugm-3
13-01-2022,06:00,179.71445,R,ugm-3,58.54878,R,ugm-3,334.10710,R,ugm-3
13-01-2022,07:00,326.99666,R,ugm-3,85.52893,R,ugm-3,586.91682,R,ugm-3
13-01-2022,08:00,351.49154,R,ugm-3,100.48060,R,ugm-3,639.42678,R,ugm-3
13-01-2022,09:00,361.61950,R,ugm-3,115.90315,R,ugm-3,670.37866,R,ugm-3
13-01-2022,10:00,260.48211,R,ugm-3,85.09391,R,ugm-3,484.49425,R,ugm-3
13-01-2022,11:00,263.07100,R,ugm-3,79.43605,R,ugm-3,482.80596,R,ugm-3
13-01-2022,12:00,195.58918,R,ugm-3,86.89099,R,ugm-3,386.79022,R,ugm-3
13-01-2022,13:00,89.41626,R,ugm-3,67.22264,R,ugm-3,204.32567,R,ugm-3
13-01-2022,14:00,64.69379,R,ugm-3,55.04414,R,ugm-3,154.23990,R,ugm-3
13-01-2022,15:00,112.77317,R,ugm-3,59.59058,R,ugm-3,232.50702,R,ugm-3
13-01-2022,16:00,122.04765,R,ugm-3,63.11853,R,ugm-3,250.25565,R,ugm-3
13-01-2022,17:00,186.96903,R,ugm-3,83.48526,R,ugm-3,370.16711,R,ugm-3
13-01-2022,18:00,192.37441,R,ugm-3,86.32250,R,ugm-3,381.29247,R,ugm-3
13-01-2022,19:00,210.06989,R,ugm-3,83.77814,R,ugm-3,405.88081,R,ugm-3
13-01-2022,20:00,200.05573,R,ugm-3,71.21136,R,ugm-3,377.95919,R,ugm-3
13-01-2022,21:00,160.34045,R,ugm-3,61.19933,R,ugm-3,307.05126,R,ugm-3
13-01-2022,22:00,120.02775,R,ugm-3,59.28938,R,ugm-3,243.32936,R,ugm-3
13-01-2022,23:00,112.23263,R,ugm-3,56.82638,R,ugm-3,228.91401,R,ugm-3
13-01-2022,24:00,66.00246,R,ugm-3,38.23259,R,ugm-3,139.43495,R,ugm-3
14-01-2022,01:00,38.05670,R,ugm-3,33.40443,R,ugm-3,91.75722,R,ugm-3
14-01-2022,02:00,15.92342,R,ugm-3,23.25426,R,ugm-3,47.66984,R,ugm-3
14-01-2022,03:00,25.86488,R,ugm-3,17.58821,R,ugm-3,57.24714,R,ugm-3
14-01-2022,04:00,30.84985,R,ugm-3,26.84582,R,ugm-3,74.14827,R,ugm-3
14-01-2022,05:00,70.10294,R,ugm-3,32.70299,R,ugm-3,140.19266,R,ugm-3
14-01-2022,06:00,204.92505,R,ugm-3,76.50530,R,ugm-3,390.71933,R,ugm-3
14-01-2022,07:00,279.67114,R,ugm-3,92.42492,R,ugm-3,521.24801,R,ugm-3
14-01-2022,08:00,263.86166,R,ugm-3,87.93387,R,ugm-3,492.51610,R,ugm-3
14-01-2022,09:00,244.34905,R,ugm-3,91.46102,R,ugm-3,466.12434,R,ugm-3
14-01-2022,10:00,182.62087,R,ugm-3,69.96853,R,ugm-3,349.98328,R,ugm-3
14-01-2022,11:00,235.00579,R,ugm-3,83.55567,R,ugm-3,443.89286,R,ugm-3
14-01-2022,12:00,266.11201,R,ugm-3,118.02560,R,ugm-3,526.05833,R,ugm-3
14-01-2022,13:00,121.57633,R,ugm-3,49.33458,R,ugm-3,235.74902,R,ugm-3
14-01-2022,14:00,51.90067,R,ugm-3,42.80155,R,ugm-3,122.38148,R,ugm-3
14-01-2022,15:00,60.07603,R,ugm-3,43.05037,R,ugm-3,135.16566,R,ugm-3
14-01-2022,16:00,114.08463,R,ugm-3,66.97543,R,ugm-3,241.90276,R,ugm-3
14-01-2022,17:00,198.51580,R,ugm-3,98.46682,R,ugm-3,402.85347,R,ugm-3
14-01-2022,18:00,148.23881,R,ugm-3,78.00731,R,ugm-3,305.30365,R,ugm-3
14-01-2022,19:00,219.73754,R,ugm-3,96.69599,R,ugm-3,433.62218,R,ugm-3
14-01-2022,20:00,163.82040,R,ugm-3,68.80684,R,ugm-3,319.99462,R,ugm-3
14-01-2022,21:00,183.41846,R,ugm-3,76.02605,R,ugm-3,357.26377,R,ugm-3
14-01-2022,22:00,138.72463,R,ugm-3,62.43350,R,ugm-3,275.14164,R,ugm-3
14-01-2022,23:00,147.09938,R,ugm-3,67.40358,R,ugm-3,292.95282,R,ugm-3
14-01-2022,24:00,67.68167,R,ugm-3,42.74264,R,ugm-3,146.51975,R,ugm-3
15-01-2022,01:00,40.69105,R,ugm-3,40.28125,R,ugm-3,102.67333,R,ugm-3
15-01-2022,02:00,18.25393,R,ugm-3,25.84945,R,ugm-3,53.83842,R,ugm-3
15-01-2022,03:00,21.41985,R,ugm-3,24.16208,R,ugm-3,57.00539,R,ugm-3
15-01-2022,04:00,20.36454,R,ugm-3,24.95592,R,ugm-3,56.18111,R,ugm-3
15-01-2022,05:00,29.80525,R,ugm-3,28.09391,R,ugm-3,73.79465,R,ugm-3
15-01-2022,06:00,96.00426,R,ugm-3,42.42303,R,ugm-3,189.62752,R,ugm-3
15-01-2022,07:00,154.53093,R,ugm-3,54.76383,R,ugm-3,291.70795,R,ugm-3
15-01-2022,08:00,131.14308,R,ugm-3,58.60797,R,ugm-3,259.69122,R,ugm-3
15-01-2022,09:00,181.19878,R,ugm-3,50.31549,R,ugm-3,328.14975,R,ugm-3
15-01-2022,10:00,251.04858,R,ugm-3,66.42195,R,ugm-3,451.35774,R,ugm-3
15-01-2022,11:00,196.65758,R,ugm-3,67.52260,R,ugm-3,369.06001,R,ugm-3
15-01-2022,12:00,159.77893,R,ugm-3,69.01591,R,ugm-3,314.00686,R,ugm-3
15-01-2022,13:00,108.86758,R,ugm-3,68.68564,R,ugm-3,235.61360,R,ugm-3